Location: Hodgeman County Ambulance
(38.0844°N, 99.8949°W)
Time: 23:50:28
(UTC+00:00)

Cosmos 1553 Rocket - Pass Details

Date: 27 October 2020
Orbit: 940 x 1009 km, 82.9° (Epoch: 04 December)

Event Time Altitude Azimuth Distance (km) Brightness Sun altitude
Rises 12:04:47 0° 355° (N) 3,639 6.9 -11.6°
Reaches altitude 10° 12:07:19 10° 358° (N) 2,682 6.2 -11.1°
Maximum altitude 12:13:25 72° 82° (E) 991 4.3 -9.9°
Drops below altitude 10° 12:19:26 10° 167° (SSE) 2,646 6.6 -8.8°
Sets 12:21:55 0° 169° (S) 3,587 7.3 -8.3°
